Flag for Austria Weather past 2 weeks in Krems, Lower Austria, Austria

Now
59 °F

Partly sunny.


Feels Like: 58 °F
Forecast: 41 / 60 °F
Wind: 6 mph from Southwest

Location: Tulln Airport

Current Time: Apr 28, 2015 at 9:26:21 AM

Latest Report: Apr 28, 2015 at 8:50 AM


Visibility: 37 mi

Pressure: 29.59 "Hg

Humidity: 68%

Dew point: 48 °F

Location of KremsLocation

Historic Weather in Krems — Graph

°F

Krems temperature yesterday

Maximum temperature yesterday: 79 °F (at 2:50 PM)
Minimum temperature yesterday: 50 °F (at 5:50 AM)
Average temperature yesterday: 68 °F

Past Weeks' High & Low Weather Summary

 TemperatureHumidityPressure
High79 °F (Apr 27, 2:50 PM)100% (Apr 17, 5:50 PM)30.42 "Hg (Apr 17, 5:50 PM)
Low36 °F (Apr 19, 5:50 AM)22% (Apr 16, 12:50 PM)29.50 "Hg (Apr 27, 5:50 PM)
Average59 °F53%30.03 "Hg
* Reported Apr 13 7:50 AM — Apr 28 7:50 AM, Krems, Weather by CustomWeather, © 2015

Note: Actual official high and low records may vary slightly from our data, if they occured in-between our weather recording intervals... More about our weather records

Advertising

Krems weather history for previous 24 hours

 ConditionsComfort  
Time TempWeatherWind HumidityBarometerVisibility
7:50 AM
Tue, Apr 28
55 °FPartly sunny.5 mph77%29.59 "Hg37 mi
6:50 AM48 °FPartly sunny.5 mph87%29.56 "Hg40 mi
5:50 AM48 °FPassing clouds.5 mph87%29.53 "Hg19 mi
10:50 PM
Mon, Apr 27
63 °FClear.7 mph52%29.53 "Hg12 mi
9:50 PM66 °FClear.9 mph49%29.53 "Hg12 mi
8:50 PM68 °FPassing clouds.15 mph46%29.50 "Hg19 mi
7:50 PM72 °FScattered clouds.16 mph41%29.50 "Hg40 mi
6:50 PM73 °FPartly sunny.13 mph38%29.50 "Hg40 mi
5:50 PM77 °FScattered clouds.15 mph36%29.50 "Hg40 mi
4:50 PM79 °FScattered clouds.15 mph34%29.53 "Hg37 mi
3:50 PM79 °FScattered clouds.16 mph37%29.53 "Hg37 mi
2:50 PM79 °FScattered clouds.6 mph37%29.56 "Hg31 mi
1:50 PM75 °FPartly sunny.7 mph39%29.59 "Hg31 mi
12:50 PM75 °FPartly sunny.8 mph47%29.62 "Hg25 mi
11:50 AM70 °FPartly sunny.6 mph53%29.62 "Hg25 mi
10:50 AM64 °FPartly sunny.7 mph64%29.62 "Hg22 mi
9:50 AM63 °FPartly sunny.8 mph73%29.65 "Hg22 mi
Weather by CustomWeather, © 2015

See weather overviewHow to use our weather pages